Probability
0 0 0 0 0 0 0 0 0 0 0 0 0 0 0 0 0 0 0 0 0 0 0 0 0 0 0 0 0 0 0 0 0 0 0 0 0 0 0 0 0 0 0 0
0 0 0 0 0 0 0 0 0 0 0 0 0 0 0 0 0 0 0 0 0 0 0 0 0 0 0 0 0 0 0 0 0 0 0 0 0 0 0 0 0 0 0 0
0 0 0 0 0 0 0 0 0 0 0 0 0 0 0 0 0 0 0 0 0 0 0 0 0 0 0 0 0 0 0 0 0 0 0 0 0 0 0 0 0 0 0 0
0 0 0 0 0 0 0 0 0 0 0 0 0 0 0 0 0 0 0 0 0 0 0 0 0 0 0 0 0 0 0 0 0 0 0 0 0 0 0 0 0 0 0 0
0 0 0 0 0 0 0 0 0 0 0 0 0 0 0 0 0 0 0 0 0 0 0 0 0 0 0 0 0 0 0 0 0 0 0 0 0 0 0 0 0 0 0 0
0 0 0 0 0 0 0 0 0 0 0 0 0 0 0 0 0 0 0 0 0 0 0 0 0 0 0 0 0 0 0 0 0 0 0 0 0 0 0 0 0 0 0 0
0 0 0 0 0 0 0 0 0 0 0 0 0 0 0 0 0 0 0 0 0 0 0 0 0 0 0 0 0 0 0 0 0 0 0 0 0 0 0 0 0 0 0 0
0 0 0 0 0 0 0 0 0 0 0 0 0 0 0 0 0 0 0 0 0 0 0 0 0 0 0 0 0 0 0 0 0 0 0 0 0 0 0 0 0 0 0 0
0 0 0 0 0 0 0 0 0 0 0 0 0 0 0 0 0 0 0 0 0 0 0 0 0 0 0 0 0 0 0 0 0 0 0 0 0 0 0 0 0 0 0 0
0 0 0 0 0 0 0 0 0 0 0 0 0 0 0 0 0 0 0 0 0 0 0 0 0 0 0 0 0 0 0 0 0 0 0 0 0 0 0 0 0 0 0 0
0 0 0 0 0 0 0 0 0 0 0 0 0 0 0 0 0 0 0 0 0 0 0 0 0 0 0 0 0 0 0 0 0 0 0 0 0 0 0 0 0 0 0 0
0 0 0 0 0 0 0 0 0 0 0 0 0 0 0 0 0 0 0 0 0 0 0 0 0 0 0 0 0 0 0 0 0 0 0 0 0 0 0 0 0 0 0 0
0 0 0 0 0 0 0 0 0 0 0 0 0 0 0 0 0 0 0 0 0 0 0 0 0 0 0 0 0 0 0 0 0 0 0 0 0 0 0 0 0 0 0 0
0 0 0 0 0 0 0 0 0 0 0 0 0 0 0 0 0 0 0 0 0 0 0 0 0 0 0 0 0 0 0 0 0 0 0 0 0 0 0 0 0 0 0 0
0 0 0 0 0 0 0 0 0 0 0 0 0 0 0 0 0 0 0 0 0 0 0 0 0 0 0 0 0 0 0 0 0 0 0 0 0 0 0 0 0 0 0 0
0 0 0 0 0 0 0 0 0 0 0 0 0 0 0 0 0 0 0 0 0 0 0 0 0 0 0 0 0 0 0 0 0 0 0 0 0 0 0 0 0 0 0 0
0 0 0 0 0 0 0 0 0 0 0 0 0 0 0 0 0 0 0 0 0 0 0 0 0 0 0 0 0 0 0 0 0 0 0 0 0 0 0 0 0 0 0 0
0 0 0 0 0 0 0 0 0 0 0 0 0 0 0 0 0 0 0 0 0 0 0 0 0 0 0 0 0 0 0 0 0 0 0 0 0 0 0 0 0 0 0 0
0 0 0 0 0 0 0 0 0 0 0 0 0 0 0 0 0 0 0 0 0 0 0 0 0 0 0 0 0 0 0 0 0 0 0 0 0 0 0 0 0 0 0 0
0 0 0 0 0 0 0 0 0 0 0 0 0 0 0 0 0 0 0 0 0 0 0 0 0 0 0 0 0 0 0 0 0 0 0 0 0 0 0 0 0 0 0 0
0 0 0 0 0 0 0 0 0 0 0 0 0 0 0 0 0 0 0 0 0 0 0 0 0 0 0 0 0 0 0 0 0 0 0 0 0 0 0 0 0 0 0 0
0 0 0 0 0 0 0 0 0 0 0 0 0 0 0 0 0 0 0 0 0 0 0 0 0 0 0 0 0 0 0 0 0 0 0 0 0 0 0 0 0 0 0 0
0 0 0 0 0 0 0 0 0 0 0 0 0 0 0 0 0 0 0 0 0 0 0 0 0 0 0 0 0 0 0 0 0 0 0 0 0 0 0 0 0 0 0 0
0 0 0 0 0 0 0 0 0 0 0 0 0 0 0 0 0 0 0 0 0 0 0 0 0 0 0 0 0 0 0 0 0 0 0 0 0 0 0 0 0 0 0 0
0 0 0 0 0 0 0 0 0 0 0 0 0 0 0 0 0 0 0 0 0 0 0 0 0 0 0 0 0 0 0 0 0 0 0 0 0 0 0 0 0 0 0 0
0 0 0 0 0 0 0 0 0 0 0 0 0 0 0 0 0 0 0 0 0 0 0 0 0 0 0 0 0 0 0 0 0 0 0 0 0 0 0 0 0 0 0 0
0 0 0 0 0 0 0 0 0 0 0 0 0 0 0 0 0 0 0 0 0 0 0 0 0 0 0 0 0 0 0 0 0 0 0 0 0 0 0 0 0 0 0 0
Wind_Speed
7 6 3 4 6 8 11 12 11 13 18 21 7 6 6 6 7 7 6 6 5 5 5 5 5 6 6 7 7 7 8 9 12 10 8 8 8 8 7 8 8 8 8 8
5 7 7 8 10 12 13 12 15 16 24 16 8 8 9 8 8 8 7 7 7 7 6 5 5 5 5 6 6 6 8 10 9 7 7 8 8 7 7 8 7 8 9 9
4 4 4 12 14 14 13 13 12 18 23 13 11 10 8 7 8 8 8 8 8 8 7 5 5 4 5 5 4 5 7 8 7 7 7 7 7 7 8 8 7 8 8 9
2 2 11 10 6 12 16 17 16 15 15 11 9 9 8 5 5 7 8 9 9 8 8 6 5 5 4 4 3 4 6 6 6 6 7 6 7 8 8 6 7 7 8 8
4 6 8 9 7 6 8 10 5 6 7 7 8 7 5 4 6 6 7 7 7 7 7 7 6 6 5 5 4 4 5 6 6 6 6 6 7 7 6 5 6 6 6 7
6 7 10 8 3 2 3 7 3 3 5 7 7 5 5 9 10 10 9 7 6 7 7 7 6 6 5 6 5 5 5 5 4 5 5 6 6 5 4 5 5 5 5 6
12 9 9 8 3 1 6 5 2 3 4 6 4 5 9 10 9 8 8 7 6 6 6 6 6 6 6 5 5 5 4 3 2 3 4 4 4 3 4 4 4 4 4 4
9 10 11 3 2 3 2 1 1 1 2 4 6 9 9 9 8 7 7 7 6 6 6 6 6 5 6 5 5 4 3 2 1 1 1 2 3 3 4 5 4 4 3 3
8 8 3 3 3 2 3 1 1 2 3 4 6 8 9 9 8 7 6 6 5 5 6 5 5 4 5 6 5 4 2 1 1 2 2 3 4 4 3 4 3 3 3 3
4 5 2 1 1 2 2 2 3 4 5 5 7 9 9 9 8 7 6 5 4 4 5 5 5 5 5 6 4 2 1 1 2 3 3 3 3 3 3 3 3 3 3 2
5 5 4 3 2 2 2 4 5 6 6 7 8 9 9 9 8 7 6 4 2 3 4 5 5 5 6 6 4 1 1 1 2 2 3 4 3 3 3 2 3 3 2 2
6 4 4 6 5 5 5 7 7 8 8 8 8 10 9 8 7 5 5 3 3 2 2 3 4 5 6 7 4 1 1 1 1 2 3 3 4 4 8 6 7 7 6 4
8 7 6 7 6 5 6 8 8 8 9 9 7 7 7 7 5 4 3 2 2 2 2 3 4 5 7 8 5 2 1 1 2 2 3 3 3 4 4 6 9 9 8 6
4 4 6 6 6 6 6 7 7 8 8 7 6 5 5 5 4 3 2 1 1 2 2 3 3 5 7 8 5 3 2 3 3 3 3 3 3 3 3 3 3 4 7 9
4 5 6 7 7 6 6 6 7 9 8 7 5 5 5 5 4 2 1 1 1 1 3 3 4 5 7 7 5 4 3 3 3 3 4 4 4 4 4 5 4 4 4 6
9 6 5 6 7 8 8 8 8 10 9 9 7 6 4 2 1 2 2 2 1 2 3 4 4 6 7 5 4 3 4 6 5 4 5 4 4 4 4 5 5 4 4 3
5 6 7 6 8 10 9 9 10 11 10 9 8 5 3 1 0 1 2 3 3 4 4 4 5 5 6 5 4 3 4 5 7 6 5 5 5 5 5 4 4 4 4 4
4 5 7 8 10 12 11 10 10 10 9 8 6 4 3 3 2 1 2 2 3 4 6 6 5 5 6 5 4 4 4 5 6 6 5 5 5 5 5 5 5 5 3 5
5 6 7 8 8 9 9 9 9 9 8 6 5 4 2 1 2 2 2 3 3 4 5 7 7 7 6 6 6 5 5 6 6 6 5 6 6 5 5 5 4 4 3 3
5 6 6 7 6 6 7 7 7 7 6 5 3 1 2 2 3 3 5 5 4 3 3 5 5 5 6 7 7 5 6 6 6 6 5 5 5 5 4 4 3 3 3 2
6 6 6 6 6 5 6 6 6 5 5 3 2 2 2 3 3 3 4 4 4 4 4 6 5 5 5 6 7 6 6 6 6 5 5 4 4 4 3 3 2 2 2 1
5 5 5 5 5 5 5 5 4 4 4 4 4 3 4 4 5 6 6 4 3 5 4 4 4 7 7 7 6 6 6 6 5 4 4 3 3 3 2 2 1 1 1 1
4 4 4 4 3 3 4 5 5 5 5 6 6 5 5 5 4 4 4 4 4 6 5 4 7 9 9 6 5 5 5 5 4 3 3 2 2 1 1 1 1 1 1 2
3 3 3 3 3 3 4 5 5 5 5 6 7 7 6 4 5 6 5 5 7 7 5 7 9 9 8 4 4 4 3 3 3 2 2 2 1 1 2 2 2 2 3 3
3 3 4 4 4 3 3 3 4 5 5 5 7 8 7 5 4 4 5 6 7 7 5 7 9 8 5 3 3 3 2 2 2 2 2 2 2 2 3 3 3 4 4 4
3 3 3 4 4 4 4 4 4 5 4 4 5 5 5 5 5 5 4 5 6 6 4 4 4 4 3 3 3 3 3 3 3 2 3 3 4 4 4 4 6 5 5 5
3 3 3 3 4 5 4 4 5 5 5 4 4 4 5 5 5 5 5 4 4 4 4 4 4 3 3 3 3 4 3 3 4 4 4 4 4 5 5 6 5 5 5 6
Wind_Direction
270 293 296 242 233 233 234 236 239 252 260 265 277 291 295 299 300 299 294 290 283 273 263 254 247 241 235 232 219 207 208 218 228 227 221 216 212 207 198 194 193 187 190 198
254 251 259 261 245 237 238 242 250 263 266 270 291 289 292 296 299 298 299 299 297 294 288 279 271 261 253 246 232 211 215 226 230 226 219 215 209 199 194 193 189 185 192 196
235 206 230 246 231 228 234 231 233 248 261 280 280 279 283 291 296 298 306 308 307 305 299 293 286 279 267 257 246 223 228 233 231 225 221 215 203 194 196 194 188 193 197 198
244 183 228 239 214 212 228 238 236 243 260 274 280 285 279 288 309 317 321 315 309 308 307 309 310 306 305 302 278 249 243 241 234 226 225 213 200 201 198 188 190 195 199 201
202 233 261 267 243 226 234 247 250 258 287 311 319 310 289 8 355 331 321 318 317 324 324 327 332 338 328 308 292 271 257 250 239 224 220 210 207 205 195 186 190 194 193 197
206 214 231 241 223 238 234 245 3 357 335 337 351 324 304 351 342 334 334 334 331 332 332 329 335 339 319 301 294 281 272 261 242 220 213 211 207 196 183 181 187 184 191 195
221 230 248 254 251 174 212 228 25 16 359 351 332 287 300 316 319 319 318 320 328 329 323 322 330 329 310 304 297 296 293 282 253 211 202 199 187 170 162 162 163 169 177 183
207 223 239 239 122 175 186 123 117 351 328 310 295 295 302 308 309 313 314 319 327 323 317 326 337 330 315 311 316 320 318 316 300 154 149 147 146 143 145 148 153 159 162 168
195 211 192 128 146 157 158 177 248 287 288 286 290 292 299 303 307 309 310 311 315 311 310 323 341 339 317 318 326 329 345 17 54 85 99 119 133 137 135 140 146 152 158 167
249 249 240 304 164 167 166 214 250 255 266 270 276 283 288 290 292 295 297 299 305 311 309 319 343 343 326 320 321 325 13 65 91 104 104 103 109 119 128 139 143 147 158 162
247 274 315 302 263 247 273 281 277 268 256 255 265 274 276 281 283 284 287 288 289 290 299 315 335 336 336 330 325 339 69 96 105 107 111 102 93 98 111 107 134 141 149 148
238 239 248 265 272 282 285 282 277 274 272 259 250 264 273 274 276 279 284 293 295 298 305 322 337 339 340 334 331 338 95 101 102 108 107 107 104 89 83 91 95 99 106 112
257 264 256 264 267 270 269 275 278 272 269 274 271 261 266 273 279 280 285 294 296 315 337 342 345 351 346 335 334 360 75 88 92 94 101 107 112 115 108 83 78 74 77 83
282 292 273 271 279 291 287 289 294 289 284 281 283 281 273 273 273 267 272 312 354 2 4 359 1 360 345 336 342 10 55 71 83 88 92 91 91 93 101 105 92 62 52 57
353 341 296 308 310 316 327 325 312 300 304 307 308 297 285 275 273 285 19 22 39 46 22 11 12 356 343 344 1 27 47 56 69 78 78 79 80 81 82 84 85 77 58 41
328 321 333 330 330 340 344 335 315 307 313 313 313 313 319 323 352 40 23 7 43 47 22 15 9 346 341 347 9 44 55 59 70 78 77 76 75 79 80 82 81 75 62 39
342 334 346 333 326 323 320 317 310 306 306 302 304 310 310 307 245 89 54 51 70 61 35 20 1 350 354 2 24 55 63 61 64 71 69 71 73 74 77 81 82 78 55 44
339 308 303 298 302 307 309 313 309 305 302 304 304 289 265 246 231 149 129 118 96 66 34 8 3 11 15 18 32 54 69 69 69 72 71 69 71 70 75 80 82 80 58 41
325 314 310 307 307 304 302 304 305 306 305 301 293 289 302 41 93 103 95 77 65 51 11 355 20 29 22 27 49 54 69 76 74 70 72 75 72 66 69 73 73 68 63 54
321 317 312 309 310 306 305 306 306 305 309 308 308 357 57 62 74 88 86 71 42 18 348 1 20 28 26 32 48 57 65 71 75 73 69 70 73 71 69 71 71 67 61 58
318 317 317 317 317 315 311 311 313 318 327 338 5 75 87 78 70 84 93 75 26 12 28 35 36 31 30 36 49 57 61 65 67 66 66 66 69 69 67 65 63 61 56 49
314 316 321 325 328 328 329 334 344 354 8 26 46 69 81 77 74 70 61 55 29 34 44 41 43 43 42 42 47 53 56 60 62 61 60 57 58 59 54 46 38 22 7 345
318 324 332 335 336 339 357 9 15 24 31 34 36 44 55 54 45 67 66 28 22 44 45 39 51 52 45 42 44 49 51 51 51 50 49 45 40 29 4 341 321 309 302 293
340 345 344 343 360 25 31 27 30 36 39 40 35 32 36 52 49 40 44 34 33 37 34 32 40 43 39 34 33 37 37 35 31 25 17 6 348 324 304 294 290 287 282 279
5 12 15 18 24 23 25 33 42 43 46 45 39 35 33 33 42 32 28 25 24 28 21 16 22 25 24 18 17 12 6 359 348 337 328 314 301 292 284 280 275 274 272 268
38 42 38 35 24 11 15 29 39 33 30 36 34 26 23 22 24 23 19 16 13 11 6 357 354 356 355 351 345 335 327 322 319 308 292 286 281 279 276 274 273 269 267 264
48 43 42 41 29 23 27 33 36 28 19 19 18 11 9 8 9 7 1 354 349 343 338 334 331 329 324 319 312 306 301 295 289 284 279 275 272 270 270 270 267 265 264 264